Yatton Keynell, United Kingdom

8:33 AM BST on August 16, 2018 (GMT +0100)
Yatton Keynell

Weather History for 03740 - June, 2001

Change the Weather History Date:

Thursday, June 21, 2001

  Actual Average Record
Temperature  
Mean Temperature 58 °F -  
Max Temperature 69 °F 68 °F - ()
Min Temperature 48 °F 52 °F - ()
Degree Days  
Heating Degree Days 6    
Growing Degree Days 8 (Base 50)    
Moisture  
Dew Point 47 °F    
Average Humidity 67    
Maximum Humidity 93    
Minimum Humidity 46    
Precipitation  
Precipitation 0.00 in 0.07 in - ()
Sea Level Pressure  
Sea Level Pressure 30.05 in    
Wind  
Wind Speed 6 mph ()    
Max Wind Speed 13 mph    
Max Gust Speed -    
Visibility 6.2 miles    
Events      
T = Trace of Precipitation, MM = Missing Value Source: Averaged Metar Reports

Daily Weather History Graph

Daily Weather History Graph

Search for Another Location

Airport or City:

Astronomy

Jun. 21, 2001 Rise Set
Actual Time 4:50 AM BST 9:28 PM BST
Civil Twilight 4:02 AM BST 10:16 PM BST
Nautical Twilight 2:48 AM BST 11:31 PM BST
Astronomical Twilight 1:42 AM BST 12:37 AM BST
Moon 4:46 AM BST (6/21) 9:40 PM BST (6/21)
Length of Visible Light 18h 13m
Length of Day
16h 38m
Waning Crescent, 0% of the Moon is Illuminated
Jun 21
Waning Crescent
Jun 21
New
Jun 28
First Quarter
Jul 5
Full
Jul 13
Last Quarter

Hourly Weather History & Observations

Time (BST) Temp. Dew Point Humidity Pressure Visibility Wind Dir Wind Speed Gust Speed Precip Events Conditions
12:50 AM 51.8 °F 48.2 °F 88% 30.06 in 6.2 mi WNW 5.8 mph - N/A   Partly Cloudy
1:50 AM 51.8 °F 46.4 °F 82% 30.06 in - NW 6.9 mph - N/A   Clear
2:50 AM 50.0 °F 46.4 °F 87% 30.06 in - NW 4.6 mph - N/A   Clear
3:50 AM 50.0 °F 44.6 °F 82% 30.06 in 6.2 mi NW 4.6 mph - N/A   Partly Cloudy
4:50 AM 50.0 °F 46.4 °F 87% 30.06 in 6.2 mi NNW 6.9 mph - N/A   Partly Cloudy
5:50 AM 48.2 °F 46.4 °F 93% 30.06 in 6.2 mi North 3.5 mph - N/A   Scattered Clouds
6:50 AM 53.6 °F 48.2 °F 82% 30.09 in 6.2 mi NNW 2.3 mph - N/A   Scattered Clouds
7:50 AM 55.4 °F 48.2 °F 77% 30.09 in 6.2 mi NNE 3.5 mph - N/A   Partly Cloudy
8:50 AM 57.2 °F 46.4 °F 67% 30.09 in 6.2 mi North 2.3 mph - N/A   Partly Cloudy
9:50 AM 59.0 °F 46.4 °F 63% 30.09 in 6.2 mi West 8.1 mph - N/A   Partly Cloudy
10:50 AM 60.8 °F 48.2 °F 63% 30.06 in 6.2 mi NW 6.9 mph - N/A   Scattered Clouds
11:50 AM 62.6 °F 46.4 °F 55% 30.06 in 6.2 mi NW 8.1 mph - N/A   Scattered Clouds
12:50 PM 64.4 °F 46.4 °F 52% 30.06 in 6.2 mi WNW 9.2 mph - N/A   Scattered Clouds
1:50 PM 64.4 °F 48.2 °F 56% 30.04 in 6.2 mi WNW 10.4 mph - N/A   Partly Cloudy
2:50 PM 68.0 °F 46.4 °F 46% 30.04 in 6.2 mi WNW 8.1 mph - N/A   Partly Cloudy
3:50 PM 68.0 °F 46.4 °F 46% 30.04 in 6.2 mi WNW 11.5 mph - N/A   Partly Cloudy
4:50 PM 69.8 °F 48.2 °F 46% 30.01 in 6.2 mi WNW 10.4 mph - N/A   Partly Cloudy
5:50 PM 68.0 °F 48.2 °F 49% 30.01 in 6.2 mi NW 9.2 mph - N/A   Partly Cloudy
6:50 PM 68.0 °F 48.2 °F 49% 30.01 in 6.2 mi NW 8.1 mph - N/A   Partly Cloudy
7:50 PM 66.2 °F 50.0 °F 56% 30.01 in 6.2 mi WNW 6.9 mph - N/A   Scattered Clouds
8:50 PM 62.6 °F 51.8 °F 68% 30.01 in 6.2 mi West 6.9 mph - N/A   Scattered Clouds
9:50 PM 59.0 °F 48.2 °F 67% 30.01 in 6.2 mi NNW 8.1 mph - N/A   Partly Cloudy
10:50 PM 55.4 °F 44.6 °F 67% 30.04 in 6.2 mi NE 12.7 mph - N/A   Scattered Clouds
11:50 PM 51.8 °F 46.4 °F 82% 30.04 in 6.2 mi NNE 9.2 mph - N/A   Partly Cloudy